Location: Coupvray
(48.8929°N, 2.7967°E)
Time: 08:07:16
(UTC+00:00)

BREEZE-M DEB (TANK) - Pass Details

Date: 14 July 2020
Orbit: 330 x 16284 km, 49.4° (Epoch: 14 August)

Event Time Altitude Azimuth Distance (km) Brightness Sun altitude
Rises 00:55:21 0° 274° (W) 2,930 5.9 -18.2°
Reaches altitude 10° 00:56:45 10° 275° (W) 2,342 5.4 -18.1°
Maximum altitude 01:01:43 87° 4° (N) 1,499 4.4 -17.9°
Drops below altitude 10° 01:25:11 10° 99° (E) 9,624 8.7 -16.6°
Sets 01:40:50 0° 102° (ESE) 13,828 9.6 -15.6°
